EHI
1 1 1 5 14 27 36 43 51 62 73 77 74 65 53 42 28 13 3 0 0 0 0 0 1 2 2 3 3 4 4 3 2 1 0 0 0 0 0 0 0 0 0
7 5 4 7 16 29 38 43 49 58 66 72 70 62 51 39 27 15 6 2 0 0 0 1 2 2 2 2 3 4 4 3 1 0 0 0 0 0 0 0 0 0 0
19 12 7 10 20 32 38 43 46 50 57 62 62 55 45 36 26 16 9 4 1 1 0 1 2 2 1 1 2 3 3 2 1 0 0 0 0 0 0 0 0 0 0
26 17 12 17 27 34 38 42 44 44 48 54 54 47 38 31 23 15 9 5 3 1 0 0 1 1 1 2 2 1 1 1 0 0 0 0 0 1 1 0 0 0 0
24 18 18 28 36 38 38 40 41 40 42 46 47 41 34 27 20 12 6 4 3 2 0 0 1 1 2 3 2 1 1 0 0 0 0 0 0 1 1 1 0 0 0
21 18 22 35 43 42 40 39 37 37 39 39 38 34 30 26 20 12 5 3 2 2 0 0 1 1 3 4 3 3 2 1 1 2 1 0 0 1 1 1 1 1 0
25 22 26 38 46 45 44 40 36 36 38 35 30 25 23 22 19 14 9 5 3 1 1 0 0 2 4 6 5 4 3 2 2 2 1 0 0 1 1 1 2 1 0
35 30 31 39 45 46 46 42 38 35 35 33 27 20 16 16 18 16 13 9 4 2 2 2 1 1 3 5 5 3 3 3 1 1 1 0 0 1 2 2 2 1 0
38 37 37 40 42 43 42 40 37 34 31 29 24 18 13 13 14 15 13 10 6 2 2 3 2 1 1 2 2 2 3 2 1 0 0 0 0 1 2 2 2 1 0
34 36 38 39 38 36 33 31 30 28 24 22 20 14 10 9 9 11 11 10 6 3 1 1 1 0 0 0 0 1 2 2 1 0 0 0 0 0 1 2 1 0 0
32 32 32 34 34 31 26 23 22 20 16 14 13 10 7 6 5 6 8 7 5 3 1 1 1 0 0 0 0 1 1 1 0 0 0 0 0 0 0 1 1 0 0
33 30 27 28 28 25 21 18 16 13 10 9 8 7 6 4 4 5 4 4 3 2 3 4 3 2 1 1 1 1 0 0 0 0 0 1 2 2 2 2 2 1 0
32 30 29 26 24 21 17 16 15 12 10 9 8 7 6 5 4 4 2 1 1 2 4 6 6 5 3 1 0 0 0 0 0 0 1 3 6 6 5 5 5 3 1
28 28 28 25 22 19 17 16 16 14 12 11 9 8 8 6 4 2 0 0 1 3 4 5 7 6 3 1 0 0 0 0 0 0 1 4 7 7 6 5 5 4 2
25 25 24 22 20 19 19 18 16 14 11 9 8 8 8 7 3 1 0 0 1 2 3 4 6 6 4 1 0 0 0 0 0 0 0 2 3 4 3 3 3 3 3
25 23 21 19 17 17 17 16 14 10 8 7 7 7 8 6 2 0 0 0 0 1 2 3 4 5 4 2 0 0 0 0 0 0 0 0 1 1 1 1 0 1 3
21 19 17 14 13 12 11 10 10 7 5 5 5 5 5 3 1 0 0 0 0 0 1 2 3 3 3 1 0 0 0 0 0 0 0 0 0 0 0 0 0 1 2
13 12 11 10 9 8 6 6 6 4 3 3 2 2 1 0 0 0 0 0 0 0 0 1 1 1 1 0 0 0 0 0 0 0 0 0 0 0 0 0 0 0 1
7 7 9 9 7 5 4 3 3 2 1 1 0 0 0 0 0 0 0 0 0 0 0 0 0 0 0 0 0 0 0 0 0 0 0 0 0 0 0 0 0 0 0
5 8 10 9 6 4 3 2 1 1 0 0 0 0 0 0 0 0 0 0 0 0 1 0 0 0 0 0 0 0 0 0 0 0 0 0 0 0 0 0 0 0 0
7 8 9 7 5 5 5 3 2 1 0 0 0 0 0 0 0 0 0 0 0 0 0 0 0 0 0 0 0 0 0 0 0 0 0 0 0 0 0 0 0 0 0
9 8 7 6 6 6 6 4 2 2 1 0 0 0 0 0 0 0 0 0 0 0 0 0 0 0 0 0 0 0 0 0 0 0 0 0 0 0 0 0 0 0 0
9 9 8 6 5 5 5 3 3 2 1 0 0 0 0 0 0 0 0 0 0 0 0 0 0 0 0 0 0 0 0 0 0 0 0 0 0 0 0 0 0 0 0
10 9 8 6 5 4 3 2 2 1 0 0 0 0 0 0 0 0 0 0 0 0 0 0 0 0 0 0 0 0 0 0 0 0 0 0 0 0 0 0 0 0 0
10 9 7 5 4 3 2 1 1 0 0 0 0 0 0 0 0 0 0 0 0 0 0 0 0 0 0 0 0 0 0 0 0 0 0 0 0 0 0 0 0 0 0
10 8 6 6 4 2 1 0 0 0 0 0 0 0 0 0 0 0 0 0 0 0 0 0 0 0 0 0 0 0 0 0 0 0 0 0 0 0 0 0 0 0 0
Wind_Speed
7 9 15 16 16 16 17 17 17 17 17 18 17 17 17 17 16 15 13 13 12 11 11 11 11 11 11 11 11 12 12 12 12 12 11 11 11 11 11 12 11 9 12
11 11 16 16 16 17 17 17 17 16 16 17 17 16 16 15 15 14 13 12 11 11 11 11 11 11 11 11 11 11 11 11 11 10 11 10 11 11 11 11 11 7 11
14 12 14 16 17 17 17 16 16 16 16 16 15 15 15 14 14 13 12 12 11 11 11 10 10 10 10 10 10 10 10 10 9 9 8 6 7 10 11 11 11 11 11
13 11 12 16 16 17 17 16 16 16 15 15 14 14 14 13 13 12 12 11 11 10 10 10 10 10 9 9 9 9 9 8 8 8 4 4 5 9 10 11 10 10 10
11 9 12 17 16 16 16 16 15 15 15 14 14 13 13 12 12 11 11 10 10 9 9 9 9 9 8 8 8 7 7 7 7 6 4 3 3 8 10 10 10 10 10
11 9 11 16 16 16 15 15 15 14 14 13 13 12 12 11 10 10 10 9 9 9 8 8 8 7 7 7 6 5 5 5 5 4 4 4 3 8 10 10 10 10 9
11 8 10 14 15 15 15 14 14 14 13 12 12 11 11 10 9 9 9 8 8 8 7 7 6 6 6 5 5 4 3 4 4 4 4 4 5 8 10 10 10 10 10
11 9 8 14 15 14 14 14 13 12 11 11 11 10 9 9 8 8 8 7 7 7 6 6 5 5 5 4 3 2 2 3 4 4 4 4 6 8 10 10 10 10 9
10 9 7 7 9 12 13 12 12 11 10 9 9 9 8 8 7 7 6 6 6 6 5 5 4 4 3 3 2 1 1 2 3 2 4 4 6 9 10 10 10 10 10
8 7 6 6 5 5 7 11 11 10 9 9 8 8 8 7 6 6 5 5 5 5 5 5 4 4 3 2 1 1 1 1 2 2 2 4 8 10 10 10 11 11 10
7 5 5 5 5 5 5 7 8 9 8 7 6 6 5 2 2 3 3 4 5 4 4 4 4 3 2 1 1 1 1 1 2 2 2 5 8 10 10 10 10 10 11
9 7 5 5 5 4 4 4 3 3 3 3 2 2 2 2 1 2 2 4 4 3 3 3 3 3 1 0 1 1 0 1 1 2 3 7 8 10 10 10 10 11 11
8 8 6 5 4 4 3 3 2 2 2 2 2 2 1 1 0 1 0 1 1 2 1 1 1 1 1 1 1 1 1 1 1 2 3 6 7 9 9 9 10 11 11
7 6 6 5 4 3 3 3 2 2 2 2 2 2 2 1 1 1 1 1 1 1 1 1 1 0 1 1 2 2 2 2 2 2 3 6 7 8 8 8 10 10 10
7 6 6 5 5 4 3 3 3 2 2 2 1 1 2 1 1 1 1 1 1 1 1 1 1 1 1 1 2 2 2 3 2 2 2 5 6 6 8 9 9 10 10
7 6 5 5 5 4 3 3 2 2 2 2 1 1 1 1 1 1 1 1 2 2 2 2 2 2 1 1 2 2 2 2 2 2 2 3 5 6 7 8 8 8 9
6 5 4 4 4 4 4 3 2 2 2 1 1 1 1 1 1 1 1 1 2 1 1 1 1 1 1 1 1 2 1 1 1 2 2 2 2 4 5 6 6 7 7
4 4 4 4 4 4 4 3 2 2 2 1 1 1 1 1 1 1 1 1 1 1 1 1 1 1 1 0 1 1 1 1 1 1 1 1 1 1 2 3 3 3 4
4 4 4 3 4 4 4 3 3 3 2 1 1 1 1 1 1 0 0 1 1 1 1 1 1 1 1 0 0 1 1 1 1 1 1 1 1 1 1 2 2 1 1
4 3 4 3 3 4 4 3 3 2 2 2 1 1 1 1 1 0 0 1 1 0 0 0 1 1 1 1 0 1 1 1 1 1 1 1 1 1 1 1 1 2 2
3 3 3 3 3 3 2 3 2 1 1 1 1 2 2 2 2 2 1 1 1 0 1 0 1 1 1 1 1 1 1 1 1 1 1 1 1 1 2 2 2 1 1
4 4 3 3 2 3 2 2 2 2 2 1 1 2 3 2 2 2 1 1 1 0 1 1 1 1 0 1 1 1 1 1 1 1 1 1 1 2 2 2 2 1 1
4 4 4 3 3 3 3 3 3 3 2 2 2 2 3 3 2 2 2 1 1 1 1 1 1 1 1 1 1 2 2 2 1 1 1 1 2 2 1 1 2 1 1
4 4 4 4 4 4 4 3 3 2 2 1 1 1 2 3 2 2 1 1 1 1 1 1 0 1 1 1 1 2 2 2 2 1 0 1 1 2 1 1 1 1 1
4 4 4 4 4 4 4 4 4 3 2 1 1 2 2 3 3 3 2 1 1 1 1 2 1 1 1 1 2 1 1 1 1 2 1 1 1 1 1 1 1 1 1
4 4 4 5 4 3 3 4 4 4 3 2 2 2 2 2 2 3 2 2 2 2 2 2 1 1 1 1 1 1 2 2 2 2 2 1 1 0 1 1 1 1 1
Wind_Direction
143 145 140 135 129 122 117 114 111 110 110 112 115 118 123 126 128 129 130 129 126 122 117 113 110 110 112 115 117 118 120 121 122 125 126 126 125 125 123 119 115 115 117
143 146 142 138 132 126 121 118 116 114 114 115 116 119 123 126 128 129 129 128 126 123 120 118 116 116 118 120 121 123 124 125 128 130 132 132 132 130 127 124 123 123 123
138 143 143 140 134 129 125 123 121 120 119 119 120 121 124 126 127 129 129 129 127 125 124 122 121 121 122 124 126 129 130 130 131 131 123 121 133 137 135 132 131 129 128
136 140 143 142 137 133 130 128 126 125 125 124 124 125 126 128 128 130 130 130 129 128 127 126 125 123 124 127 130 132 135 139 138 132 116 126 142 144 141 138 138 135 133
133 137 146 144 140 137 135 134 132 131 130 129 129 128 129 129 129 130 131 130 129 129 129 129 128 129 129 131 134 137 141 146 144 134 130 130 136 153 150 148 146 143 140
133 137 146 143 141 140 140 139 137 136 135 134 133 132 132 132 132 132 133 132 131 132 133 134 133 133 133 134 136 141 148 155 142 142 154 155 161 167 162 159 156 153 152
136 138 143 143 142 142 143 143 142 141 140 139 138 138 138 137 137 138 139 139 139 140 141 140 138 137 137 135 136 144 154 162 146 154 166 171 181 180 173 169 165 164 164
137 135 139 145 146 147 147 145 144 143 143 143 143 144 144 144 145 148 150 150 150 152 152 151 150 151 147 141 141 144 150 158 151 165 173 181 195 192 184 178 174 174 171
134 134 134 143 147 149 147 146 146 144 144 144 147 149 150 153 155 157 160 164 164 166 170 171 172 174 167 162 162 166 166 162 142 168 184 186 205 202 193 187 184 183 180
129 132 130 129 130 134 143 150 150 148 148 150 152 156 157 160 164 167 169 178 181 184 189 192 193 198 200 203 213 220 200 131 153 187 191 202 212 210 202 196 193 190 187
134 133 132 131 128 128 136 154 154 154 154 154 157 160 157 151 162 174 182 192 197 200 204 206 207 210 215 232 254 245 193 167 190 208 211 224 221 218 211 205 201 198 195
153 153 143 138 137 137 150 141 136 148 144 145 140 147 136 136 171 180 187 203 208 210 217 221 220 222 221 275 296 296 208 212 219 224 227 235 229 225 218 211 208 204 202
157 157 155 149 142 143 141 138 132 130 132 138 140 135 125 122 159 195 181 230 239 226 224 246 241 198 173 215 243 248 232 226 230 238 240 243 233 231 224 218 211 209 208
154 160 155 153 149 151 140 139 139 143 145 150 154 148 142 155 200 234 231 213 201 200 204 211 219 219 224 241 249 252 243 236 237 238 250 246 235 236 235 230 220 214 210
160 166 161 156 160 156 145 145 146 150 158 154 145 153 155 177 211 236 247 233 220 208 209 222 225 228 236 252 254 253 250 249 251 244 257 257 243 238 239 240 231 219 214
162 161 162 160 162 153 152 148 144 146 141 133 136 145 151 170 195 233 251 243 238 224 207 199 216 224 235 234 254 259 256 250 255 253 252 266 268 259 246 239 235 230 223
162 158 160 160 151 150 150 145 136 131 122 128 124 120 134 154 185 209 243 245 248 240 222 208 228 214 230 240 271 265 253 253 264 267 267 260 275 283 267 248 240 234 229
157 150 151 162 151 149 142 135 122 109 111 111 102 97 127 176 196 194 250 261 257 232 194 206 214 212 228 324 310 291 274 260 266 267 273 272 272 288 297 287 260 235 229
157 149 146 145 142 142 129 119 108 106 110 96 91 72 18 16 44 93 279 287 277 236 193 215 194 195 203 208 279 299 313 293 276 285 297 304 289 287 290 325 339 344 251
149 138 136 128 125 120 110 102 94 93 87 83 81 59 43 35 40 55 8 333 8 25 308 172 175 184 206 186 283 350 343 322 325 315 289 316 323 341 34 38 33 27 26
136 133 149 142 134 127 115 117 120 108 81 57 48 43 37 40 39 48 31 11 29 35 313 267 156 160 169 140 89 15 356 21 18 360 4 56 49 60 73 67 63 41 9
137 139 143 131 124 127 126 124 121 119 107 90 42 31 20 22 24 35 29 15 6 359 310 274 160 157 186 151 129 105 336 343 20 13 40 66 50 55 64 66 70 58 17
133 145 144 136 120 109 111 105 93 77 63 50 33 21 4 7 12 14 2 2 5 333 279 267 197 146 203 225 169 163 180 224 277 3 37 53 57 60 47 45 46 43 6
142 131 122 120 113 108 110 112 116 116 118 107 53 18 353 3 5 6 2 6 359 343 307 291 250 185 175 214 216 211 214 191 184 220 353 50 69 67 47 26 7 13 1
140 130 124 112 95 89 94 108 112 104 100 76 54 38 13 3 5 8 12 6 350 338 318 296 268 218 190 209 211 198 212 225 184 180 227 248 38 49 49 16 352 359 360
135 128 122 108 87 79 89 99 113 113 102 84 55 28 2 353 353 356 357 352 332 320 308 292 265 225 206 215 228 205 197 201 195 181 201 217 223 291 26 27 2 0 17